Location: Baggettsville
(36.4767°N, 86.7303°W)
Time: 01:38:54
(UTC+00:00)

Envisat - Pass Details

Date: 24 September 2021
Orbit: 764 x 766 km, 98.2° (Epoch: 15 October)

Event Time Altitude Azimuth Distance (km) Brightness Sun altitude
Rises 09:38:27 0° 35° (NE) 3,234 7.0 -24.2°
Reaches altitude 10° 09:41:53 10° 59° (ENE) 2,303 6.5 -23.5°
Maximum altitude 09:44:36 14° 92° (E) 2,003 6.0 -23.0°
Drops below altitude 10° 09:47:18 10° 124° (SE) 2,294 5.9 -22.5°
Sets 09:50:41 0° 149° (SSE) 3,214 6.4 -21.9°
